| time (UTC) | temp F | wind direction | speed MPH | gust MPH | rain 1hr in | rain 24hr in | rain mn in | humidity % | barometer mb |
| 20260504233007 | 36 | 248 | 2.0 | 0.0 | 0.00 | 0.00 | 0.00 | 87 | 997.0 |
| 20260504231505 | 36 | 242 | 3.0 | 0.0 | 0.00 | 0.00 | 0.00 | 87 | 996.8 |
| 20260504230009 | 36 | 266 | 3.0 | 0.0 | 0.00 | 0.00 | 0.00 | 87 | 997.0 |
| 20260504224508 | 35 | 264 | 2.0 | 0.0 | 0.00 | 0.00 | 0.00 | 87 | 997.0 |
| 20260504223002 | 35 | 273 | 3.0 | 0.0 | 0.00 | 0.00 | 0.00 | 86 | 997.0 |
| 20260504221600 | 36 | 227 | 4.0 | 0.0 | 0.00 | 0.00 | 0.00 | 86 | 996.9 |
| 20260504220100 | 36 | 259 | 3.0 | 0.0 | 0.00 | 0.00 | 0.00 | 86 | 997.0 |
| 20260504214557 | 36 | 294 | 4.0 | 0.0 | 0.00 | 0.00 | 0.18 | 85 | 996.9 |
| 20260504213101 | 36 | 269 | 1.0 | 0.0 | 0.00 | 0.00 | 0.18 | 85 | 996.9 |
| 20260504211600 | 37 | 292 | 3.0 | 0.0 | 0.00 | 0.00 | 0.18 | 85 | 996.9 |
| 20260504204556 | 38 | 304 | 5.0 | 0.0 | 0.00 | 0.00 | 0.18 | 84 | 997.1 |
| 20260504203054 | 38 | 259 | 2.0 | 0.0 | 0.00 | 0.00 | 0.18 | 82 | 997.0 |
| 20260504201557 | 38 | 303 | 4.0 | 0.0 | 0.00 | 0.00 | 0.18 | 81 | 996.8 |
| 20260504194553 | 38 | 252 | 3.0 | 0.0 | 0.00 | 0.00 | 0.18 | 81 | 996.6 |
| 20260504193053 | 38 | 333 | 3.0 | 0.0 | 0.00 | 0.00 | 0.18 | 80 | 996.7 |
| 20260504191607 | 38 | 291 | 4.0 | 0.0 | 0.00 | 0.00 | 0.18 | 80 | 996.5 |
| 20260504190051 | 38 | 310 | 4.0 | 0.0 | 0.00 | 0.00 | 0.18 | 79 | 996.6 |
| 20260504184551 | 38 | 360 | 5.0 | 0.0 | 0.00 | 0.00 | 0.18 | 79 | 996.6 |
| 20260504183050 | 38 | 301 | 6.0 | 0.0 | 0.00 | 0.00 | 0.18 | 79 | 996.6 |
| 20260504181552 | 39 | 305 | 4.0 | 0.0 | 0.00 | 0.00 | 0.18 | 79 | 996.4 |
| 20260504180050 | 40 | 309 | 5.0 | 0.0 | 0.00 | 0.00 | 0.18 | 78 | 996.4 |
| 20260504174555 | 41 | 300 | 4.0 | 0.0 | 0.00 | 0.00 | 0.18 | 77 | 996.1 |
| 20260504173049 | 40 | 285 | 5.0 | 0.0 | 0.00 | 0.00 | 0.18 | 76 | 996.1 |
| 20260504171549 | 41 | 280 | 5.0 | 0.0 | 0.00 | 0.00 | 0.18 | 74 | 996.1 |
| 20260504081524 | 36 | 76 | 4.0 | 0.0 | 0.00 | 0.00 | 0.10 | 92 | 994.9 |
| 20260504050006 | 36 | 28 | 3.0 | 0.0 | 0.00 | 0.00 | 0.06 | 92 | 995.2 |
| 20260504044510 | 36 | 47 | 2.0 | 0.0 | 0.00 | 0.00 | 0.06 | 92 | 995.4 |
| 20260504043007 | 36 | 46 | 3.0 | 0.0 | 0.00 | 0.00 | 0.06 | 92 | 995.3 |
| 20260504041501 | 35 | 38 | 2.0 | 0.0 | 0.00 | 0.00 | 0.06 | 92 | 995.5 |
| 20260504040100 | 35 | 40 | 2.0 | 0.0 | 0.00 | 0.00 | 0.06 | 92 | 995.7 |
| 20260504034557 | 35 | 43 | 2.0 | 0.0 | 0.00 | 0.00 | 0.06 | 91 | 996.0 |
| 20260504033109 | 35 | 64 | 1.0 | 0.0 | 0.00 | 0.00 | 0.05 | 91 | 996.1 |
| 20260504031558 | 35 | 63 | 1.0 | 0.0 | 0.00 | 0.00 | 0.05 | 91 | 996.4 |
| 20260504030109 | 35 | 63 | 0.0 | 0.0 | 0.00 | 0.00 | 0.04 | 91 | 996.8 |
| 20260504024552 | 35 | 63 | 2.0 | 0.0 | 0.00 | 0.00 | 0.04 | 91 | 996.8 |
| 20260504023051 | 35 | 66 | 1.0 | 0.0 | 0.00 | 0.00 | 0.04 | 91 | 996.9 |
| 20260504021551 | 35 | 74 | 1.0 | 0.0 | 0.00 | 0.00 | 0.03 | 90 | 997.1 |
| 20260504020054 | 35 | 75 | 2.0 | 0.0 | 0.00 | 0.00 | 0.03 | 90 | 997.1 |
| 20260504014547 | 35 | 82 | 3.0 | 0.0 | 0.00 | 0.00 | 0.03 | 89 | 997.3 |
| 20260504013050 | 36 | 342 | 0.0 | 0.0 | 0.00 | 0.00 | 0.02 | 88 | 997.5 |
| 20260504011540 | 36 | 311 | 0.0 | 0.0 | 0.00 | 0.00 | 0.02 | 87 | 997.5 |
| 20260504010050 | 37 | 311 | 0.0 | 0.0 | 0.00 | 0.00 | 0.01 | 88 | 997.6 |
| 20260504004544 | 37 | 300 | 0.0 | 0.0 | 0.00 | 0.00 | 0.01 | 87 | 997.8 |
| 20260504003036 | 37 | 300 | 0.0 | 0.0 | 0.00 | 0.00 | 0.00 | 86 | 997.8 |
| 20260504001539 | 37 | 300 | 2.0 | 0.0 | 0.00 | 0.00 | 0.00 | 85 | 997.9 |
| 20260504000032 | 37 | 268 | 3.0 | 0.0 | 0.00 | 0.00 | 0.00 | 84 | 998.1 |
| 20260503234534 | 38 | 292 | 3.0 | 0.0 | 0.00 | 0.00 | 0.00 | 83 | 998.1 |